Powrót do katalogu

SIMORGH NO. 7 STAGE 2

AktywnyLEO
NORAD 58851·ROCKET BODY·🇮🇷 Iran
Ta nazwa satelity nie została jeszcze potwierdzona przez oficjalne źródła.

Wystrzelony Jan 28, 2024 z Semnan Space Center

Loading…

Następne Przeloty (najbliższe 24 godziny)

TLE

ŚwieżeSource: Space-Track

Epoka: Sep 14, 2026, 14:57 UTC

1 58851U 24018C   26257.62332787  .00001035  00000-0  13576-3 0  9996
2 58851  58.6845 269.0869 0418493 213.3643 144.0367 14.41425523138183

Śledź SIMORGH NO. 7 STAGE 2 w czasie rzeczywistym z AllMySat

Download on the App Store